Weather History for Lamar, CO

Change the Weather History Date:

Thursday, July 25, 2013

  Actual Average Record
Temperature  
Mean Temperature 78 °F 78 °F  
Max Temperature 90 °F 94 °F 109 °F (1940)
Min Temperature 65 °F 62 °F 49 °F (1924)
Degree Days  
Heating Degree Days 0 0  
Month to date heating degree days 0 0  
Since 1 June heating degree days 16 20  
Since 1 July heating degree days 0 0  
Cooling Degree Days 13 13  
Month to date cooling degree days 361 308  
Year to date cooling degree days 884 588  
Since 1 June cooling degree days 743 528  
Growing Degree Days 28 (Base 50)    
Moisture  
Dew Point 59 °F    
Average Humidity 58    
Maximum Humidity 81    
Minimum Humidity 34    
Precipitation  
Precipitation T in 0.10 in 2.83 in (1957)
Month to date precipitation 1.49 2.26  
Year to date precipitation 4.30 9.46  
Sea Level Pressure  
Sea Level Pressure 29.91 in    
Wind  
Wind Speed 11 mph (NW)    
Max Wind Speed 29 mph    
Max Gust Speed 35 mph    
Visibility 10 miles    
Events Rain    
T = Trace of Precipitation, MM = Missing Value Source: NWS Daily Summary

Daily Weather History Graph

Daily Weather History Graph

Search for Another Location

Airport:

Trip Planner

Search our weather history database for the weather conditions in past years. The results will help you decide how hot, cold, wet, or windy it might be!

Date:

Astronomy

Jul. 25, 2013 Rise Set
Actual Time 5:47 AM MDT 8:06 PM MDT
Civil Twilight 5:18 AM MDT 8:35 PM MDT
Nautical Twilight 4:41 AM MDT 9:12 PM MDT
Astronomical Twilight 4:01 AM MDT 9:52 PM MDT
Moon 9:52 PM MDT (7/25) 9:15 AM MDT (7/25)
Length of Visible Light 15h 17m
Length of Day
14h 18m
Waning Gibbous, 88% of the Moon is Illuminated
Jul 25
Waning Gibbous
Jul 29
Last Quarter
Aug 6
New
Aug 14
First Quarter
Aug 20
Full

Hourly Weather History & Observations

Time (MDT) Temp. Heat Index Dew Point Humidity Pressure Visibility Wind Dir Wind Speed Gust Speed Precip Events Conditions
12:53 AM 70.0 °F - 62.1 °F 76% 29.99 in 8.0 mi South 15.0 mph 24.2 mph 0.02 in Rain Light Rain
1:53 AM 69.1 °F - 61.0 °F 75% 29.99 in 10.0 mi SSW 5.8 mph - 0.00 in   Overcast
2:53 AM 68.0 °F - 60.1 °F 76% 29.93 in 10.0 mi West 6.9 mph - N/A   Clear
3:53 AM 68.0 °F - 57.9 °F 70% 29.89 in 10.0 mi SSW 18.4 mph 26.5 mph N/A   Clear
4:53 AM 66.9 °F - 59.0 °F 76% 29.90 in 10.0 mi ESE 6.9 mph - N/A   Mostly Cloudy
5:53 AM 66.9 °F - 60.1 °F 79% 29.91 in 10.0 mi Calm Calm - N/A   Clear
6:53 AM 68.0 °F - 61.0 °F 78% 29.91 in 10.0 mi Calm Calm - N/A   Clear
7:53 AM 72.0 °F - 59.0 °F 64% 29.92 in 10.0 mi South 9.2 mph - N/A   Clear
8:53 AM 75.9 °F - 60.1 °F 58% 29.91 in 10.0 mi SSW 11.5 mph - N/A   Clear
9:53 AM 80.1 °F 80.9 °F 60.1 °F 50% 29.89 in 10.0 mi SSW 19.6 mph - N/A   Clear
10:53 AM 82.9 °F 83.2 °F 60.1 °F 46% 29.88 in 10.0 mi WSW 11.5 mph 17.3 mph N/A   Clear
11:53 AM 84.0 °F 83.5 °F 57.9 °F 41% 29.87 in 10.0 mi WNW 10.4 mph - N/A   Clear
12:53 PM 84.9 °F 84.8 °F 60.1 °F 43% 29.86 in 10.0 mi North 3.5 mph - N/A   Clear
1:53 PM 87.1 °F 86.5 °F 59.0 °F 39% 29.86 in 10.0 mi North 8.1 mph - N/A   Clear
2:53 PM 89.1 °F 88.2 °F 59.0 °F 36% 29.83 in 10.0 mi NNW 9.2 mph 19.6 mph N/A   Clear
3:53 PM 89.1 °F 88.2 °F 59.0 °F 36% 29.83 in 10.0 mi NNW 19.6 mph 23.0 mph N/A   Partly Cloudy
4:53 PM 88.0 °F 86.7 °F 57.0 °F 35% 29.83 in 10.0 mi North 20.7 mph 29.9 mph N/A   Clear
5:53 PM 87.1 °F 86.1 °F 57.9 °F 37% 29.86 in 10.0 mi North 21.9 mph 28.8 mph N/A   Clear
6:53 PM 84.0 °F 82.5 °F 53.1 °F 34% 29.90 in 10.0 mi North 20.7 mph - N/A   Clear
7:53 PM 80.1 °F - 52.0 °F 38% 29.92 in 10.0 mi North 17.3 mph - N/A   Clear
8:53 PM 73.9 °F - 55.9 °F 53% 29.97 in 10.0 mi NE 12.7 mph - N/A   Clear
9:53 PM 72.0 °F - 57.9 °F 61% 29.99 in 10.0 mi NE 9.2 mph - N/A   Clear
10:53 PM 69.1 °F - 59.0 °F 70% 30.01 in 10.0 mi NE 4.6 mph - N/A   Clear
11:53 PM 66.0 °F - 60.1 °F 81% 30.04 in 10.0 mi West 3.5 mph - N/A   Clear